Regional Weather Roundup
Issued by NWS

Home | Current Version | Previous Version | Graphics & Text | Print | Product List | Glossary Off
Versions: 1 2 3 4 5 6 7 8 9 10 11 12 13 14 15 16 17 18 19 20 21 22 23 24 25 26 27 28 29 30 31 32 33 34 35 36 37 38 39 40 41 42 43 44 45 46 47 48 49 50

000
ASUS43 KTOP 291908
RWRKS

WEATHER ROUNDUP FOR KANSAS
NATIONAL WEATHER SERVICE GOODLAND KS
200 PM CDT MON JUN 29 2015

NOTE:  "FAIR" INDICATES FEW OR NO CLOUDS BELOW 12,000 FEET WITH NO
SIGNIFICANT WEATHER AND/OR OBSTRUCTIONS TO VISIBILITY.

KSZ001>006-013>018-027>032-041>047-292000-
NORTHWEST KANSAS

CITY           SKY/WX    TMP DP  RH WIND       PRES   REMARKS
GOODLAND       MOSUNNY   88  52  29 SE6       30.13F
HAYS           SUNNY     91  54  27 NW9       30.04S
HILL CITY      SUNNY     93  51  23 CALM      30.04F
RUSSELL        SUNNY     90  54  29 N9        30.01F
$$

KSZ061>065-074>080-084>089-292000-
SOUTHWEST KANSAS

CITY           SKY/WX    TMP DP  RH WIND       PRES   REMARKS
DODGE CITY     PTSUNNY   87  49  26 CALM      30.08F
ELKHART          N/A     85  58  40 NE6         N/A
GARDEN CITY    PTSUNNY   87  54  32 E7        30.10F
GREAT BEND     SUNNY     88  54  31 N7        30.03F
LIBERAL        CLOUDY    86  61  42 E8        30.12S
PRATT          SUNNY    N/A N/A N/A W5        30.05S
$$

KSZ066>073-081>083-090>101-292000-
SOUTHEAST KANSAS

CITY           SKY/WX    TMP DP  RH WIND       PRES   REMARKS
CHANUTE        SUNNY     87  59  38 VRB6      29.97F
COFFEYVILLE    SUNNY     89  61  38 N13       29.95F
HUTCHINSON     SUNNY     89  56  32 N6        30.01F
MEDICINE LODGE   N/A     93  55  27 W6        30.00F
NEWTON         SUNNY     84  55  37 CALM      30.04F
PARSONS        MOSUNNY   87  62  43 NW9       29.98S
WICHITA INTL   PTSUNNY   87  56  34 VRB6      30.00F
WICHITA JABRA  SUNNY     86  58  38 N6        30.00F
WICHITA MCCONL MOSUNNY   86  53  32 VRB3      30.00F
WINFIELD       SUNNY     89  57  33 N8G18     29.99F
$$

KSZ007>012-019>026-033>040-048>060-102>105-292000-
NORTHEAST KANSAS

CITY           SKY/WX    TMP DP  RH WIND       PRES   REMARKS
CONCORDIA      SUNNY     85  58  39 NW12      30.00F
EMPORIA        MOSUNNY   85  58  39 W6        29.98F
LAWRENCE       MOSUNNY   86  63  45 NW9       29.95F
MANHATTAN      MOSUNNY   88  59  37 NW7       29.97F
MARYSVILLE     MOSUNNY   86  61  42 NW12      29.98S
OLATHE IND     SUNNY     84  62  47 NW13      29.97S
OLATHE EXE     MOSUNNY   84  62  47 VRB7      29.95S
SALINA         SUNNY     88  55  32 VRB7      30.00F
TOPEKA BILLARD MOSUNNY   86  63  45 N9        29.96S
TOPEKA FORBES  MOSUNNY   87  60  40 N9        29.97S
$$



USA.gov is the U.S. government's official web portal to all federal, state and local government web resources and services.